Change the Weather History Date:

Thursday, January 22, 2015

  Actual Average Record
Temperature  
Mean Temperature 38 °F 35 °F  
Max Temperature 50 °F 45 °F 62 °F (1981)
Min Temperature 26 °F 26 °F -2 °F (1962)
Degree Days  
Heating Degree Days 27 30  
Month to date heating degree days 592 660  
Since 1 July heating degree days 2330 2893  
Cooling Degree Days 0 0  
Month to date cooling degree days 0 0  
Year to date cooling degree days 0 0  
Moisture  
Dew Point 30 °F    
Average Humidity 79    
Maximum Humidity 92    
Minimum Humidity 50    
Precipitation  
Precipitation 0.00 in 0.05 in 2.19 in (1972)
Month to date precipitation 0.71 1.82  
Year to date precipitation 0.71 1.82  
Sea Level Pressure  
Sea Level Pressure 30.44 in    
Wind  
Wind Speed 2 mph (SSW)    
Max Wind Speed 10 mph    
Max Gust Speed -    
Visibility 10 miles    
Events      
T = Trace of Precipitation, MM = Missing Value Source: NWS Daily Summary

Daily Weather History Graph

Daily Weather History Graph

Search for Another Location

Airport or City:

Trip Planner

Search our weather history database for the weather conditions in past years. The results will help you decide how hot, cold, wet, or windy it might be!

Date:

Astronomy

Jan. 22, 2015 Rise Set
Actual Time 7:30 AM PST 5:12 PM PST
Civil Twilight 7:00 AM PST 5:42 PM PST
Nautical Twilight 6:26 AM PST 6:16 PM PST
Astronomical Twilight 5:53 AM PST 6:49 PM PST
Moon 8:44 AM PST (1/22) 8:21 PM PST (1/22)
Length of Visible Light 10h 42m
Length of Day
9h 41m
Waxing Crescent, 8% of the Moon is Illuminated
Jan 22
Waxing Crescent
Jan 26
First Quarter
Feb 3
Full
Feb 11
Last Quarter
Feb 18
New

Hourly Weather History & Observations

Time (PST) Temp. Windchill Dew Point Humidity Pressure Visibility Wind Dir Wind Speed Gust Speed Precip Events Conditions
12:53 AM 30.9 °F - 28.9 °F 92% 30.35 in 10.0 mi Calm Calm - N/A   Clear
1:53 AM 30.9 °F - 28.9 °F 92% 30.36 in 10.0 mi Calm Calm - N/A   Clear
2:53 AM 32.0 °F - 28.9 °F 88% 30.38 in 10.0 mi Calm Calm - N/A   Clear
3:53 AM 30.9 °F 27.5 °F 28.9 °F 92% 30.38 in 10.0 mi WSW 3.5 mph - N/A   Clear
4:53 AM 32.0 °F 27.5 °F 30.0 °F 92% 30.37 in 10.0 mi WSW 4.6 mph - N/A   Overcast
5:53 AM 33.1 °F 26.9 °F 30.0 °F 89% 30.37 in 10.0 mi ENE 6.9 mph - N/A   Partly Cloudy
6:53 AM 33.1 °F 30.0 °F 30.0 °F 89% 30.38 in 10.0 mi East 3.5 mph - N/A   Clear
7:53 AM 32.0 °F 27.5 °F 30.0 °F 92% 30.41 in 10.0 mi SSW 4.6 mph - N/A   Clear
8:53 AM 34.0 °F - 30.9 °F 89% 30.44 in 10.0 mi Calm Calm - N/A   Partly Cloudy
9:53 AM 39.0 °F - 32.0 °F 76% 30.45 in 10.0 mi Calm Calm - N/A   Scattered Clouds
10:53 AM 44.1 °F - 33.1 °F 65% 30.44 in 10.0 mi Calm Calm - N/A   Overcast
11:53 AM 46.9 °F - 30.9 °F 54% 30.43 in 10.0 mi Calm Calm - N/A   Overcast
12:53 PM 48.9 °F - 32.0 °F 52% 30.42 in 10.0 mi Calm Calm - N/A   Mostly Cloudy
1:53 PM 48.0 °F - 33.1 °F 56% 30.43 in 10.0 mi SW 3.5 mph - N/A   Overcast
2:53 PM 48.9 °F - 30.9 °F 50% 30.44 in 10.0 mi South 3.5 mph - N/A   Overcast
3:53 PM 50.0 °F - 33.1 °F 52% 30.44 in 10.0 mi SSW 6.9 mph - N/A   Clear
4:53 PM 46.0 °F 43.9 °F 33.1 °F 61% 30.46 in 10.0 mi WSW 4.6 mph - N/A   Clear
5:53 PM 37.0 °F 33.3 °F 30.9 °F 79% 30.49 in 10.0 mi SE 4.6 mph - N/A   Clear
6:53 PM 36.0 °F - 30.9 °F 82% 30.49 in 10.0 mi Calm Calm - N/A   Clear
7:53 PM 33.1 °F 27.7 °F 30.0 °F 89% 30.51 in 10.0 mi NNW 5.8 mph - N/A   Clear
8:53 PM 33.1 °F 26.9 °F 28.9 °F 85% 30.53 in 10.0 mi NNE 6.9 mph - N/A   Clear
9:53 PM 30.9 °F 25.2 °F 28.0 °F 89% 30.55 in 10.0 mi ESE 5.8 mph - N/A   Clear
10:53 PM 30.0 °F 26.5 °F 28.0 °F 92% 30.55 in 10.0 mi WSW 3.5 mph - N/A   Clear
11:53 PM 27.0 °F 19.5 °F 25.0 °F 92% 30.55 in 10.0 mi North 6.9 mph - N/A   Clear